Year,Month,Day,Hour,Minute,Value (Times are PST for temperature in C)
2015,08,20,00,00,17.80
2015,08,20,00,01,17.70
2015,08,20,00,02,17.70
2015,08,20,00,03,17.70
2015,08,20,00,04,17.70
2015,08,20,00,05,17.70
2015,08,20,00,06,17.70
2015,08,20,00,07,17.70
2015,08,20,00,08,17.70
2015,08,20,00,09,17.60
2015,08,20,00,10,17.60
2015,08,20,00,11,17.60
2015,08,20,00,12,17.60
2015,08,20,00,13,17.60
2015,08,20,00,14,17.50
2015,08,20,00,15,17.50
2015,08,20,00,16,17.50
2015,08,20,00,17,17.40
2015,08,20,00,18,17.40
2015,08,20,00,19,17.40
2015,08,20,00,20,17.40
2015,08,20,00,21,17.40
2015,08,20,00,22,17.30
2015,08,20,00,23,17.30
2015,08,20,00,24,17.30
2015,08,20,00,25,17.30
2015,08,20,00,26,17.30
2015,08,20,00,27,17.30
2015,08,20,00,28,17.30
2015,08,20,00,29,17.20
2015,08,20,00,30,17.20
2015,08,20,00,31,17.20
2015,08,20,00,32,17.20
2015,08,20,00,33,17.20
2015,08,20,00,34,17.10
2015,08,20,00,35,17.10
2015,08,20,00,36,17.10
2015,08,20,00,37,17.10
2015,08,20,00,38,17.10
2015,08,20,00,39,17.10
2015,08,20,00,40,17.00
2015,08,20,00,41,17.00
2015,08,20,00,42,17.00
2015,08,20,00,43,16.90
2015,08,20,00,44,16.90
2015,08,20,00,45,16.90
2015,08,20,00,46,16.90
2015,08,20,00,47,16.90
2015,08,20,00,48,16.90
2015,08,20,00,49,16.80
2015,08,20,00,50,16.80
2015,08,20,00,51,16.80
2015,08,20,00,52,16.80
2015,08,20,00,53,16.80
2015,08,20,00,54,16.80
2015,08,20,00,55,16.70
2015,08,20,00,56,16.70
2015,08,20,00,57,16.70
2015,08,20,00,58,16.70
2015,08,20,00,59,16.70
2015,08,20,01,00,16.70
2015,08,20,01,01,16.60
2015,08,20,01,02,16.60
2015,08,20,01,03,16.60
2015,08,20,01,04,16.60
2015,08,20,01,05,16.60
2015,08,20,01,06,16.60
2015,08,20,01,07,16.60
2015,08,20,01,08,16.50
2015,08,20,01,09,16.50
2015,08,20,01,10,16.50
2015,08,20,01,11,16.40
2015,08,20,01,12,16.40
2015,08,20,01,13,16.40
2015,08,20,01,14,16.40
2015,08,20,01,15,16.40
2015,08,20,01,16,16.30
2015,08,20,01,17,16.30
2015,08,20,01,18,16.30
2015,08,20,01,19,16.30
2015,08,20,01,20,16.30
2015,08,20,01,21,16.30
2015,08,20,01,22,16.30
2015,08,20,01,23,16.20
2015,08,20,01,24,16.20
2015,08,20,01,25,16.20
2015,08,20,01,26,16.20
2015,08,20,01,27,16.20
2015,08,20,01,28,16.20
2015,08,20,01,29,16.10
2015,08,20,01,30,16.10
2015,08,20,01,31,16.10
2015,08,20,01,32,16.10
2015,08,20,01,33,16.10
2015,08,20,01,34,16.10
2015,08,20,01,35,16.10
2015,08,20,01,36,16.10
2015,08,20,01,37,16.10
2015,08,20,01,38,16.00
2015,08,20,01,39,16.00
2015,08,20,01,40,16.00
2015,08,20,01,41,16.00
2015,08,20,01,42,16.00
2015,08,20,01,43,15.90
2015,08,20,01,44,15.90
2015,08,20,01,45,15.90
2015,08,20,01,46,15.90
2015,08,20,01,47,15.90
2015,08,20,01,48,15.90
2015,08,20,01,49,15.90
2015,08,20,01,50,15.80
2015,08,20,01,51,15.80
2015,08,20,01,52,15.80
2015,08,20,01,53,15.80
2015,08,20,01,54,15.80
2015,08,20,01,55,15.80
2015,08,20,01,56,15.80
2015,08,20,01,57,15.80
2015,08,20,01,58,15.70
2015,08,20,01,59,15.70
2015,08,20,02,00,15.70
2015,08,20,02,01,15.70
2015,08,20,02,02,15.70
2015,08,20,02,03,15.70
2015,08,20,02,04,15.70
2015,08,20,02,05,15.60
2015,08,20,02,06,15.60
2015,08,20,02,07,15.60
2015,08,20,02,08,15.60
2015,08,20,02,09,15.60
2015,08,20,02,10,15.60
2015,08,20,02,11,15.50
2015,08,20,02,12,15.50
2015,08,20,02,13,15.50
2015,08,20,02,14,15.40
2015,08,20,02,15,15.40
2015,08,20,02,16,15.40
2015,08,20,02,17,15.40
2015,08,20,02,18,15.40
2015,08,20,02,19,15.30
2015,08,20,02,20,15.30
2015,08,20,02,21,15.30
2015,08,20,02,22,15.30
2015,08,20,02,23,15.30
2015,08,20,02,24,15.30
2015,08,20,02,25,15.20
2015,08,20,02,26,15.20
2015,08,20,02,27,15.20
2015,08,20,02,28,15.10
2015,08,20,02,29,15.10
2015,08,20,02,30,15.10
2015,08,20,02,31,15.00
2015,08,20,02,32,15.00
2015,08,20,02,33,15.00
2015,08,20,02,34,15.00
2015,08,20,02,35,15.00
2015,08,20,02,36,15.00
2015,08,20,02,37,15.00
2015,08,20,02,38,15.00
2015,08,20,02,39,15.00
2015,08,20,02,40,15.00
2015,08,20,02,41,15.00
2015,08,20,02,42,15.00
2015,08,20,02,43,15.00
2015,08,20,02,44,15.00
2015,08,20,02,45,15.00
2015,08,20,02,46,15.00
2015,08,20,02,47,14.90
2015,08,20,02,48,14.90
2015,08,20,02,49,14.90
2015,08,20,02,50,14.90
2015,08,20,02,51,14.80
2015,08,20,02,52,14.80
2015,08,20,02,53,14.80
2015,08,20,02,54,14.80
2015,08,20,02,55,14.80
2015,08,20,02,56,14.70
2015,08,20,02,57,14.70
2015,08,20,02,58,14.70
2015,08,20,02,59,14.70
2015,08,20,03,00,14.70
2015,08,20,03,01,14.70
2015,08,20,03,02,14.60
2015,08,20,03,06,14.50
2015,08,20,03,07,14.50
2015,08,20,03,08,14.50
2015,08,20,03,09,14.50
2015,08,20,03,10,14.50
2015,08,20,03,11,14.40
2015,08,20,03,12,14.40
2015,08,20,03,13,14.40
2015,08,20,03,14,14.40
2015,08,20,03,15,14.40
2015,08,20,03,16,14.30
2015,08,20,03,17,14.30
2015,08,20,03,18,14.30
2015,08,20,03,19,14.30
2015,08,20,03,20,14.30
2015,08,20,03,21,14.20
2015,08,20,03,22,14.20
2015,08,20,03,23,14.20
2015,08,20,03,24,14.20
2015,08,20,03,25,14.20
2015,08,20,03,26,14.20
2015,08,20,03,27,14.10
2015,08,20,03,28,14.10
2015,08,20,03,29,14.10
2015,08,20,03,30,14.10
2015,08,20,03,31,14.10
2015,08,20,03,32,14.00
2015,08,20,03,33,14.00
2015,08,20,03,34,14.00
2015,08,20,03,35,13.90
2015,08,20,03,36,13.90
2015,08,20,03,37,13.90
2015,08,20,03,38,13.90
2015,08,20,03,39,13.90
2015,08,20,03,40,13.90
2015,08,20,03,41,13.90
2015,08,20,03,42,13.80
2015,08,20,03,43,13.80
2015,08,20,03,44,13.80
2015,08,20,03,45,13.80
2015,08,20,03,46,13.80
2015,08,20,03,47,13.80
2015,08,20,03,48,13.80
2015,08,20,03,49,13.80
2015,08,20,03,50,13.80
2015,08,20,03,51,13.80
2015,08,20,03,52,13.70
2015,08,20,03,53,13.70
2015,08,20,03,54,13.70
2015,08,20,03,55,13.70
2015,08,20,03,56,13.70
2015,08,20,03,57,13.70
2015,08,20,03,58,13.70
2015,08,20,03,59,13.70
2015,08,20,04,00,13.70
2015,08,20,04,01,13.70
2015,08,20,04,02,13.70
2015,08,20,04,03,13.60
2015,08,20,04,04,13.60
2015,08,20,04,05,13.60
2015,08,20,04,06,13.60
2015,08,20,04,07,13.60
2015,08,20,04,08,13.60
2015,08,20,04,09,13.60
2015,08,20,04,10,13.50
2015,08,20,04,11,13.50
2015,08,20,04,12,13.50
2015,08,20,04,13,13.50
2015,08,20,04,14,13.40
2015,08,20,04,15,13.40
2015,08,20,04,16,13.40
2015,08,20,04,17,13.40
2015,08,20,04,18,13.40
2015,08,20,04,19,13.40
2015,08,20,04,20,13.30
2015,08,20,04,21,13.30
2015,08,20,04,22,13.30
2015,08,20,04,23,13.30
2015,08,20,04,24,13.30
2015,08,20,04,25,13.30
2015,08,20,04,26,13.30
2015,08,20,04,27,13.30
2015,08,20,04,28,13.30
2015,08,20,04,29,13.30
2015,08,20,04,30,13.30
2015,08,20,04,31,13.30
2015,08,20,04,32,13.20
2015,08,20,04,33,13.20
2015,08,20,04,34,13.20
2015,08,20,04,35,13.20
2015,08,20,04,36,13.20
2015,08,20,04,37,13.20
2015,08,20,04,38,13.20
2015,08,20,04,39,13.20
2015,08,20,04,40,13.20
2015,08,20,04,41,13.10
2015,08,20,04,42,13.10
2015,08,20,04,43,13.10
2015,08,20,04,44,13.10
2015,08,20,04,45,13.10
2015,08,20,04,46,13.10
2015,08,20,04,47,13.10
2015,08,20,04,48,13.00
2015,08,20,04,49,13.00
2015,08,20,04,50,13.00
2015,08,20,04,51,13.00
2015,08,20,04,52,13.00
2015,08,20,04,53,13.00
2015,08,20,04,54,13.00
2015,08,20,04,55,12.90
2015,08,20,04,56,12.90
2015,08,20,04,57,12.90
2015,08,20,04,58,12.90
2015,08,20,04,59,12.90
2015,08,20,05,00,12.90
2015,08,20,05,01,12.90
2015,08,20,05,02,12.90
2015,08,20,05,03,12.90
2015,08,20,05,04,12.90
2015,08,20,05,05,12.90
2015,08,20,05,06,12.80
2015,08,20,05,07,12.80
2015,08,20,05,08,12.80
2015,08,20,05,09,12.80
2015,08,20,05,10,12.80
2015,08,20,05,11,12.80
2015,08,20,05,12,12.80
2015,08,20,05,13,12.80
2015,08,20,05,14,12.80
2015,08,20,05,15,12.80
2015,08,20,05,16,12.80
2015,08,20,05,17,12.70
2015,08,20,05,18,12.70
2015,08,20,05,19,12.70
2015,08,20,05,20,12.70
2015,08,20,05,21,12.70
2015,08,20,05,22,12.70
2015,08,20,05,23,12.70
2015,08,20,05,24,12.70
2015,08,20,05,25,12.70
2015,08,20,05,26,12.70
2015,08,20,05,27,12.70
2015,08,20,05,28,12.60
2015,08,20,05,29,12.60
2015,08,20,05,30,12.60
2015,08,20,05,31,12.60
2015,08,20,05,32,12.60
2015,08,20,05,33,12.60
2015,08,20,05,34,12.60
2015,08,20,05,35,12.60
2015,08,20,05,36,12.60
2015,08,20,05,37,12.60
2015,08,20,05,38,12.60
2015,08,20,05,39,12.60
2015,08,20,05,40,12.60
2015,08,20,05,41,12.60
2015,08,20,05,42,12.60
2015,08,20,05,43,12.50
2015,08,20,05,44,12.50
2015,08,20,05,45,12.50
2015,08,20,05,46,12.50
2015,08,20,05,47,12.50
2015,08,20,05,48,12.50
2015,08,20,05,49,12.50
2015,08,20,05,50,12.50
2015,08,20,05,51,12.40
2015,08,20,05,52,12.40
2015,08,20,05,53,12.40
2015,08,20,05,54,12.40
2015,08,20,05,55,12.40
2015,08,20,05,56,12.40
2015,08,20,05,57,12.40
2015,08,20,05,58,12.40
2015,08,20,05,59,12.30
2015,08,20,06,00,12.30
2015,08,20,06,01,12.30
2015,08,20,06,02,12.30
2015,08,20,06,03,12.30
2015,08,20,06,04,12.30
2015,08,20,06,05,12.30
2015,08,20,06,06,12.30
2015,08,20,06,07,12.30
2015,08,20,06,08,12.30
2015,08,20,06,09,12.30
2015,08,20,06,10,12.30
2015,08,20,06,11,12.30
2015,08,20,06,12,12.30
2015,08,20,06,13,12.30
2015,08,20,06,14,12.30
2015,08,20,06,15,12.30
2015,08,20,06,16,12.30
2015,08,20,06,17,12.30
2015,08,20,06,18,12.30
2015,08,20,06,19,12.30
2015,08,20,06,20,12.30
2015,08,20,06,21,12.20
2015,08,20,06,22,12.20
2015,08,20,06,23,12.20
2015,08,20,06,24,12.20
2015,08,20,06,25,12.20
2015,08,20,06,26,12.20
2015,08,20,06,27,12.20
2015,08,20,06,28,12.20
2015,08,20,06,29,12.20
2015,08,20,06,30,12.20
2015,08,20,06,31,12.20
2015,08,20,06,32,12.20
2015,08,20,06,33,12.10
2015,08,20,06,34,12.10
2015,08,20,06,35,12.10
2015,08,20,06,36,12.10
2015,08,20,06,37,12.10
2015,08,20,06,38,12.10
2015,08,20,06,39,12.10
2015,08,20,06,40,12.10
2015,08,20,06,41,12.10
2015,08,20,06,42,12.10
2015,08,20,06,43,12.00
2015,08,20,06,44,12.00
2015,08,20,06,45,12.00
2015,08,20,06,46,12.00
2015,08,20,06,47,12.00
2015,08,20,06,48,12.00
2015,08,20,06,49,12.00
2015,08,20,06,50,12.00
2015,08,20,06,51,12.00
2015,08,20,06,52,11.90
2015,08,20,06,53,11.90
2015,08,20,06,54,11.90
2015,08,20,06,55,11.90
2015,08,20,06,56,11.90
2015,08,20,06,57,11.90
2015,08,20,06,58,11.90
2015,08,20,06,59,11.90
2015,08,20,07,00,11.90
2015,08,20,07,01,11.90
2015,08,20,07,02,11.90
2015,08,20,07,03,11.90
2015,08,20,07,04,11.90
2015,08,20,07,05,11.90
2015,08,20,07,06,11.90
2015,08,20,07,07,11.90
2015,08,20,07,08,11.90
2015,08,20,07,09,11.90
2015,08,20,07,10,11.90
2015,08,20,07,11,11.90
2015,08,20,07,12,11.90
2015,08,20,07,13,11.90
2015,08,20,07,14,11.90
2015,08,20,07,15,11.90
2015,08,20,07,16,11.90
2015,08,20,07,17,11.90
2015,08,20,07,18,11.90
2015,08,20,07,19,11.90
2015,08,20,07,20,11.90
2015,08,20,07,21,12.00
2015,08,20,07,22,12.00
2015,08,20,07,23,12.00
2015,08,20,07,24,12.10
2015,08,20,07,25,12.10
2015,08,20,07,26,12.10
2015,08,20,07,27,12.10
2015,08,20,07,28,12.10
2015,08,20,07,29,12.20
2015,08,20,07,30,12.20
2015,08,20,07,31,12.20
2015,08,20,07,32,12.30
2015,08,20,07,33,12.30
2015,08,20,07,34,12.30
2015,08,20,07,35,12.30
2015,08,20,07,36,12.40
2015,08,20,07,37,12.40
2015,08,20,07,38,12.40
2015,08,20,07,39,12.40
2015,08,20,07,40,12.50
2015,08,20,07,41,12.50
2015,08,20,07,42,12.50
2015,08,20,07,43,12.60
2015,08,20,07,44,12.60
2015,08,20,07,45,12.70
2015,08,20,07,46,12.70
2015,08,20,07,47,12.70
2015,08,20,07,48,12.80
2015,08,20,07,49,12.80
2015,08,20,07,50,12.80
2015,08,20,07,51,12.90
2015,08,20,07,52,12.90
2015,08,20,07,53,13.00
2015,08,20,07,54,13.00
2015,08,20,07,55,13.10
2015,08,20,07,56,13.10
2015,08,20,07,57,13.20
2015,08,20,07,58,13.30
2015,08,20,07,59,13.30
2015,08,20,08,00,13.40
2015,08,20,08,01,13.50
2015,08,20,08,02,13.50
2015,08,20,08,03,13.60
2015,08,20,08,04,13.70
2015,08,20,08,05,13.70
2015,08,20,08,06,13.80
2015,08,20,08,07,13.80
2015,08,20,08,08,13.80
2015,08,20,08,09,13.80
2015,08,20,08,10,13.90
2015,08,20,08,11,13.90
2015,08,20,08,12,14.00
2015,08,20,08,13,14.00
2015,08,20,08,14,14.10
2015,08,20,08,15,14.10
2015,08,20,08,16,14.20
2015,08,20,08,17,14.20
2015,08,20,08,18,14.20
2015,08,20,08,19,14.30
2015,08,20,08,20,14.30
2015,08,20,08,21,14.30
2015,08,20,08,22,14.40
2015,08,20,08,23,14.40
2015,08,20,08,24,14.50
2015,08,20,08,25,14.50
2015,08,20,08,26,14.60
2015,08,20,08,27,14.60
2015,08,20,08,28,14.60
2015,08,20,08,29,14.70
2015,08,20,08,30,14.70
2015,08,20,08,31,14.70
2015,08,20,08,32,14.70
2015,08,20,08,33,14.80
2015,08,20,08,34,14.80
2015,08,20,08,35,14.80
2015,08,20,08,36,14.80
2015,08,20,08,37,14.80
2015,08,20,08,38,14.90
2015,08,20,08,39,14.90
2015,08,20,08,40,14.90
2015,08,20,08,41,14.90
2015,08,20,08,42,15.00
2015,08,20,08,43,15.00
2015,08,20,08,44,15.00
2015,08,20,08,45,15.00
2015,08,20,08,46,15.00
2015,08,20,08,47,15.00
2015,08,20,08,48,15.00
2015,08,20,08,49,15.00
2015,08,20,08,50,15.10
2015,08,20,08,51,15.20
2015,08,20,08,52,15.30
2015,08,20,08,53,15.30
2015,08,20,08,54,15.30
2015,08,20,08,55,15.40
2015,08,20,08,56,15.40
2015,08,20,08,57,15.50
2015,08,20,08,58,15.50
2015,08,20,08,59,15.50
2015,08,20,09,00,15.60
2015,08,20,09,01,15.60
2015,08,20,09,02,15.60
2015,08,20,09,03,15.60
2015,08,20,09,04,15.70
2015,08,20,09,05,15.70
2015,08,20,09,06,15.70
2015,08,20,09,07,15.70
2015,08,20,09,08,15.70
2015,08,20,09,09,15.70
2015,08,20,09,10,15.70
2015,08,20,09,11,15.70
2015,08,20,09,12,15.80
2015,08,20,09,13,15.80
2015,08,20,09,14,15.80
2015,08,20,09,15,15.80
2015,08,20,09,16,15.80
2015,08,20,09,17,15.90
2015,08,20,09,18,15.90
2015,08,20,09,19,15.90
2015,08,20,09,20,15.90
2015,08,20,09,21,15.90
2015,08,20,09,22,15.90
2015,08,20,09,23,16.00
2015,08,20,09,24,16.00
2015,08,20,09,25,16.10
2015,08,20,09,26,16.10
2015,08,20,09,27,16.10
2015,08,20,09,28,16.20
2015,08,20,09,29,16.20
2015,08,20,09,30,16.20
2015,08,20,09,31,16.20
2015,08,20,09,32,16.30
2015,08,20,09,33,16.30
2015,08,20,09,34,16.30
2015,08,20,09,35,16.30
2015,08,20,09,36,16.30
2015,08,20,09,37,16.30
2015,08,20,09,38,16.40
2015,08,20,09,39,16.40
2015,08,20,09,40,16.40
2015,08,20,09,41,16.40
2015,08,20,09,42,16.50
2015,08,20,09,43,16.50
2015,08,20,09,44,16.60
2015,08,20,09,45,16.60
2015,08,20,09,46,16.60
2015,08,20,09,47,16.60
2015,08,20,09,48,16.60
2015,08,20,09,49,16.70
2015,08,20,09,50,16.70
2015,08,20,09,51,16.70
2015,08,20,09,52,16.80
2015,08,20,09,53,16.80
2015,08,20,09,54,16.90
2015,08,20,09,55,16.90
2015,08,20,09,56,17.00
2015,08,20,09,57,17.00
2015,08,20,09,58,17.10
2015,08,20,09,59,17.10
2015,08,20,10,00,17.10
2015,08,20,10,01,17.20
2015,08,20,10,02,17.20
2015,08,20,10,03,17.30
2015,08,20,10,04,17.30
2015,08,20,10,05,17.30
2015,08,20,10,06,17.40
2015,08,20,10,07,17.40
2015,08,20,10,08,17.50
2015,08,20,10,09,17.60
2015,08,20,10,10,17.60
2015,08,20,10,11,17.70
2015,08,20,10,12,17.70
2015,08,20,10,13,17.70
2015,08,20,10,14,17.70
2015,08,20,10,15,17.80
2015,08,20,10,16,17.80
2015,08,20,10,17,17.90
2015,08,20,10,18,17.90
2015,08,20,10,19,18.00
2015,08,20,10,20,18.00
2015,08,20,10,21,18.10
2015,08,20,10,22,18.10
2015,08,20,10,23,18.10
2015,08,20,10,24,18.20
2015,08,20,10,25,18.30
2015,08,20,10,26,18.30
2015,08,20,10,27,18.40
2015,08,20,10,28,18.40
2015,08,20,10,29,18.40
2015,08,20,10,30,18.50
2015,08,20,10,31,18.50
2015,08,20,10,32,18.50
2015,08,20,10,33,18.60
2015,08,20,10,34,18.60
2015,08,20,10,35,18.70
2015,08,20,10,36,18.80
2015,08,20,10,37,18.90
2015,08,20,10,38,19.00
2015,08,20,10,39,19.10
2015,08,20,10,40,19.20
2015,08,20,10,41,19.20
2015,08,20,10,42,19.20
2015,08,20,10,43,19.20
2015,08,20,10,44,19.20
2015,08,20,10,45,19.20
2015,08,20,10,46,19.20
2015,08,20,10,47,19.20
2015,08,20,10,48,19.30
2015,08,20,10,49,19.30
2015,08,20,10,50,19.30
2015,08,20,10,51,19.30
2015,08,20,10,52,19.30
2015,08,20,10,53,19.30
2015,08,20,10,54,19.30
2015,08,20,10,55,19.40
2015,08,20,10,56,19.40
2015,08,20,10,57,19.50
2015,08,20,10,58,19.50
2015,08,20,10,59,19.60
2015,08,20,11,00,19.60
2015,08,20,11,01,19.60
2015,08,20,11,02,19.60
2015,08,20,11,03,19.60
2015,08,20,11,04,19.60
2015,08,20,11,05,19.50
2015,08,20,11,06,19.50
2015,08,20,11,07,19.50
2015,08,20,11,08,19.50
2015,08,20,11,09,19.60
2015,08,20,11,10,19.60
2015,08,20,11,11,19.60
2015,08,20,11,12,19.60
2015,08,20,11,13,19.60
2015,08,20,11,14,19.60
2015,08,20,11,15,19.60
2015,08,20,11,16,19.60
2015,08,20,11,17,19.60
2015,08,20,11,18,19.70
2015,08,20,11,19,19.70
2015,08,20,11,20,19.80
2015,08,20,11,21,19.80
2015,08,20,11,22,19.90
2015,08,20,11,23,20.00
2015,08,20,11,24,20.10
2015,08,20,11,25,20.10
2015,08,20,11,26,20.20
2015,08,20,11,27,20.20
2015,08,20,11,28,20.10
2015,08,20,11,29,20.10
2015,08,20,11,30,20.10
2015,08,20,11,31,20.10
2015,08,20,11,32,20.20
2015,08,20,11,33,20.20
2015,08,20,11,34,20.30
2015,08,20,11,35,20.30
2015,08,20,11,36,20.30
2015,08,20,11,37,20.40
2015,08,20,11,38,20.40
2015,08,20,11,39,20.40
2015,08,20,11,40,20.40
2015,08,20,11,41,20.40
2015,08,20,11,42,20.40
2015,08,20,11,43,20.40
2015,08,20,11,44,20.50
2015,08,20,11,45,20.50
2015,08,20,11,46,20.50
2015,08,20,11,47,20.40
2015,08,20,11,48,20.50
2015,08,20,11,49,20.50
2015,08,20,11,50,20.40
2015,08,20,11,51,20.40
2015,08,20,11,52,20.40
2015,08,20,11,53,20.40
2015,08,20,11,54,20.40
2015,08,20,11,55,20.40
2015,08,20,11,56,20.40
2015,08,20,11,57,20.40
2015,08,20,11,58,20.30
2015,08,20,11,59,20.20
2015,08,20,12,00,20.10
2015,08,20,12,01,20.10
2015,08,20,12,02,20.10
2015,08,20,12,03,20.00
2015,08,20,12,04,20.00
2015,08,20,12,05,20.00
2015,08,20,12,06,20.00
2015,08,20,12,07,20.00
2015,08,20,12,08,20.00
2015,08,20,12,09,20.10
2015,08,20,12,10,20.10
2015,08,20,12,11,20.10
2015,08,20,12,12,20.10
2015,08,20,12,13,20.10
2015,08,20,12,14,20.10
2015,08,20,12,15,20.10
2015,08,20,12,16,20.10
2015,08,20,12,17,20.10
2015,08,20,12,18,20.10
2015,08,20,12,19,20.10
2015,08,20,12,20,20.20
2015,08,20,12,21,20.30
2015,08,20,12,22,20.30
2015,08,20,12,23,20.40
2015,08,20,12,24,20.40
2015,08,20,12,25,20.50
2015,08,20,12,26,20.60
2015,08,20,12,27,20.60
2015,08,20,12,28,20.60
2015,08,20,12,29,20.60
2015,08,20,12,30,20.50
2015,08,20,12,31,20.50
2015,08,20,12,32,20.50
2015,08,20,12,33,20.50
2015,08,20,12,34,20.60
2015,08,20,12,35,20.60
2015,08,20,12,36,20.70
2015,08,20,12,37,20.70
2015,08,20,12,38,20.80
2015,08,20,12,39,20.80
2015,08,20,12,40,20.80
2015,08,20,12,41,20.90
2015,08,20,12,42,21.00
2015,08,20,12,43,21.00
2015,08,20,12,44,21.00
2015,08,20,12,45,21.10
2015,08,20,12,46,21.10
2015,08,20,12,47,21.10
2015,08,20,12,48,21.00
2015,08,20,12,49,21.00
2015,08,20,12,50,21.10
2015,08,20,12,51,21.10
2015,08,20,12,52,21.10
2015,08,20,12,53,21.10
2015,08,20,12,54,21.10
2015,08,20,12,55,21.20
2015,08,20,12,56,21.20
2015,08,20,12,57,21.10
2015,08,20,12,58,21.10
2015,08,20,12,59,21.20
2015,08,20,13,00,21.20
2015,08,20,13,01,21.20
2015,08,20,13,02,21.20
2015,08,20,13,03,21.20
2015,08,20,13,04,21.10
2015,08,20,13,05,21.10
2015,08,20,13,06,21.00
2015,08,20,13,07,20.90
2015,08,20,13,08,20.90
2015,08,20,13,09,20.80
2015,08,20,13,10,20.80
2015,08,20,13,11,20.70
2015,08,20,13,12,20.70
2015,08,20,13,13,20.70
2015,08,20,13,14,20.60
2015,08,20,13,15,20.60
2015,08,20,13,16,20.60
2015,08,20,13,17,20.60
2015,08,20,13,18,20.60
2015,08,20,13,19,20.60
2015,08,20,13,20,20.70
2015,08,20,13,21,20.80
2015,08,20,13,22,20.90
2015,08,20,13,23,21.00
2015,08,20,13,24,21.00
2015,08,20,13,25,21.00
2015,08,20,13,26,20.90
2015,08,20,13,27,21.00
2015,08,20,13,28,21.00
2015,08,20,13,29,21.10
2015,08,20,13,30,21.10
2015,08,20,13,31,21.10
2015,08,20,13,32,21.10
2015,08,20,13,33,21.20
2015,08,20,13,34,21.20
2015,08,20,13,35,21.20
2015,08,20,13,36,21.20
2015,08,20,13,37,21.20
2015,08,20,13,38,21.30
2015,08,20,13,39,21.30
2015,08,20,13,40,21.30
2015,08,20,13,41,21.30
2015,08,20,13,42,21.40
2015,08,20,13,43,21.40
2015,08,20,13,44,21.50
2015,08,20,13,45,21.50
2015,08,20,13,46,21.60
2015,08,20,13,47,21.60
2015,08,20,13,48,21.50
2015,08,20,13,49,21.50
2015,08,20,13,50,21.50
2015,08,20,13,51,21.50
2015,08,20,13,52,21.60
2015,08,20,13,53,21.50
2015,08,20,13,54,21.60
2015,08,20,13,55,21.60
2015,08,20,13,56,21.60
2015,08,20,13,57,21.70
2015,08,20,13,58,21.70
2015,08,20,13,59,21.80
2015,08,20,14,00,21.80
2015,08,20,14,01,21.80
2015,08,20,14,02,21.80
2015,08,20,14,03,21.80
2015,08,20,14,04,21.90
2015,08,20,14,05,21.90
2015,08,20,14,06,21.90
2015,08,20,14,07,21.90
2015,08,20,14,08,21.90
2015,08,20,14,09,21.90
2015,08,20,14,10,21.90
2015,08,20,14,11,21.90
2015,08,20,14,12,21.90
2015,08,20,14,13,21.80
2015,08,20,14,14,21.70
2015,08,20,14,15,21.60
2015,08,20,14,16,21.60
2015,08,20,14,17,21.50
2015,08,20,14,18,21.40
2015,08,20,14,19,21.40
2015,08,20,14,20,21.40
2015,08,20,14,21,21.50
2015,08,20,14,22,21.50
2015,08,20,14,23,21.50
2015,08,20,14,24,21.50
2015,08,20,14,25,21.50
2015,08,20,14,26,21.50
2015,08,20,14,27,21.50
2015,08,20,14,28,21.50
2015,08,20,14,29,21.50
2015,08,20,14,30,21.50
2015,08,20,14,31,21.50
2015,08,20,14,32,21.50
2015,08,20,14,33,21.60
2015,08,20,14,34,21.60
2015,08,20,14,35,21.60
2015,08,20,14,36,21.70
2015,08,20,14,37,21.70
2015,08,20,14,38,21.70
2015,08,20,14,39,21.70
2015,08,20,14,40,21.70
2015,08,20,14,41,21.70
2015,08,20,14,42,21.70
2015,08,20,14,43,21.70
2015,08,20,14,44,21.70
2015,08,20,14,45,21.70
2015,08,20,14,46,21.70
2015,08,20,14,47,21.70
2015,08,20,14,48,21.70
2015,08,20,14,49,21.80
2015,08,20,14,50,21.80
2015,08,20,14,51,21.80
2015,08,20,14,52,21.80
2015,08,20,14,53,21.90
2015,08,20,14,54,21.90
2015,08,20,14,55,22.00
2015,08,20,14,56,22.00
2015,08,20,14,57,22.00
2015,08,20,14,58,22.10
2015,08,20,14,59,22.10
2015,08,20,15,00,22.10
2015,08,20,15,01,22.10
2015,08,20,15,02,22.10
2015,08,20,15,03,22.10
2015,08,20,15,04,22.00
2015,08,20,15,05,22.00
2015,08,20,15,06,21.90
2015,08,20,15,07,21.90
2015,08,20,15,08,21.90
2015,08,20,15,09,21.90
2015,08,20,15,10,21.90
2015,08,20,15,11,21.90
2015,08,20,15,12,21.90
2015,08,20,15,13,21.90
2015,08,20,15,14,21.90
2015,08,20,15,15,21.90
2015,08,20,15,16,21.90
2015,08,20,15,17,21.90
2015,08,20,15,18,21.90
2015,08,20,15,19,21.90
2015,08,20,15,20,21.90
2015,08,20,15,21,22.00
2015,08,20,15,22,21.90
2015,08,20,15,23,22.00
2015,08,20,15,24,22.00
2015,08,20,15,25,22.00
2015,08,20,15,26,22.00
2015,08,20,15,27,22.00
2015,08,20,15,28,22.10
2015,08,20,15,29,22.10
2015,08,20,15,30,22.10
2015,08,20,15,31,22.10
2015,08,20,15,32,22.10
2015,08,20,15,33,22.00
2015,08,20,15,34,22.00
2015,08,20,15,35,22.00
2015,08,20,15,36,22.00
2015,08,20,15,37,22.10
2015,08,20,15,38,22.20
2015,08,20,15,39,22.30
2015,08,20,15,40,22.30
2015,08,20,15,41,22.30
2015,08,20,15,42,22.40
2015,08,20,15,43,22.40
2015,08,20,15,44,22.50
2015,08,20,15,45,22.50
2015,08,20,15,46,22.50
2015,08,20,15,47,22.60
2015,08,20,15,48,22.60
2015,08,20,15,49,22.60
2015,08,20,15,50,22.60
2015,08,20,15,51,22.60
2015,08,20,15,52,22.60
2015,08,20,15,53,22.60
2015,08,20,15,54,22.50
2015,08,20,15,55,22.50
2015,08,20,15,56,22.40
2015,08,20,15,57,22.40
2015,08,20,15,58,22.30
2015,08,20,15,59,22.20
2015,08,20,16,00,22.00
2015,08,20,16,01,21.90
2015,08,20,16,02,21.80
2015,08,20,16,03,21.80
2015,08,20,16,04,21.80
2015,08,20,16,05,21.80
2015,08,20,16,06,21.80
2015,08,20,16,07,21.70
2015,08,20,16,08,21.70
2015,08,20,16,09,21.60
2015,08,20,16,10,21.60
2015,08,20,16,11,21.50
2015,08,20,16,12,21.50
2015,08,20,16,13,21.50
2015,08,20,16,14,21.40
2015,08,20,16,15,21.40
2015,08,20,16,16,21.30
2015,08,20,16,17,21.30
2015,08,20,16,18,21.30
2015,08,20,16,19,21.30
2015,08,20,16,20,21.30
2015,08,20,16,21,21.30
2015,08,20,16,22,21.40
2015,08,20,16,23,21.40
2015,08,20,16,24,21.40
2015,08,20,16,25,21.30
2015,08,20,16,26,21.20
2015,08,20,16,27,21.20
2015,08,20,16,28,21.20
2015,08,20,16,29,21.20
2015,08,20,16,30,21.20
2015,08,20,16,31,21.30
2015,08,20,16,32,21.30
2015,08,20,16,33,21.40
2015,08,20,16,34,21.40
2015,08,20,16,35,21.40
2015,08,20,16,36,21.40
2015,08,20,16,37,21.40
2015,08,20,16,38,21.40
2015,08,20,16,39,21.40
2015,08,20,16,40,21.40
2015,08,20,16,41,21.50
2015,08,20,16,42,21.50
2015,08,20,16,43,21.50
2015,08,20,16,44,21.50
2015,08,20,16,45,21.60
2015,08,20,16,46,21.50
2015,08,20,16,47,21.50
2015,08,20,16,48,21.50
2015,08,20,16,49,21.50
2015,08,20,16,50,21.50
2015,08,20,16,51,21.50
2015,08,20,16,52,21.50
2015,08,20,16,53,21.50
2015,08,20,16,54,21.50
2015,08,20,16,55,21.50
2015,08,20,16,56,21.60
2015,08,20,16,57,21.60
2015,08,20,16,58,21.70
2015,08,20,16,59,21.70
2015,08,20,17,00,21.70
2015,08,20,17,01,21.70
2015,08,20,17,02,21.70
2015,08,20,17,03,21.70
2015,08,20,17,04,21.70
2015,08,20,17,05,21.70
2015,08,20,17,06,21.60
2015,08,20,17,07,21.60
2015,08,20,17,08,21.60
2015,08,20,17,09,21.50
2015,08,20,17,10,21.50
2015,08,20,17,11,21.50
2015,08,20,17,12,21.40
2015,08,20,17,13,21.40
2015,08,20,17,14,21.40
2015,08,20,17,15,21.40
2015,08,20,17,16,21.40
2015,08,20,17,17,21.30
2015,08,20,17,18,21.30
2015,08,20,17,19,21.20
2015,08,20,17,20,21.20
2015,08,20,17,21,21.10
2015,08,20,17,22,21.10